Altoona, PA

8:16 AM EDT on June 28, 2017 (GMT -0400)
Altoona-Blair County

Weather History for KAOO - November, 2014

Change the Weather History Date:

Wednesday, November 5, 2014

  Actual Average Record
Temperature  
Mean Temperature 54 °F 45 °F  
Max Temperature 62 °F 54 °F 77 °F (2015)
Min Temperature 45 °F 36 °F 14 °F (1991)
Degree Days  
Heating Degree Days 11 20  
Month to date heating degree days 89 95  
Since 1 July heating degree days 585 702  
Cooling Degree Days 0 0  
Month to date cooling degree days 0 0  
Year to date cooling degree days 521 522  
Growing Degree Days 3 (Base 50)    
Moisture  
Dew Point 39 °F    
Average Humidity 55    
Maximum Humidity 83    
Minimum Humidity 27    
Precipitation  
Precipitation T in 0.11 in 1.17 in (1988)
Month to date precipitation 0.04 0.53  
Year to date precipitation 32.45 27.51  
Sea Level Pressure  
Sea Level Pressure 30.14 in    
Wind  
Wind Speed 8 mph (WSW)    
Max Wind Speed 26 mph    
Max Gust Speed 35 mph    
Visibility 10 miles    
Events Rain    
T = Trace of Precipitation, MM = Missing Value Source: NWS Daily Summary

Daily Weather History Graph

Daily Weather History Graph

Search for Another Location

Airport or City:

Trip Planner

Search our weather history database for the weather conditions in past years. The results will help you decide how hot, cold, wet, or windy it might be!

Date:

Astronomy

Nov. 05, 2014 Rise Set
Actual Time 6:47 AM EST 5:05 PM EST
Civil Twilight 6:18 AM EST 5:34 PM EST
Nautical Twilight 5:46 AM EST 6:06 PM EST
Astronomical Twilight 5:14 AM EST 6:38 PM EST
Moon 4:30 PM EST (11/5) 5:10 AM EST (11/5)
Length of Visible Light 11h 15m
Length of Day
10h 18m
Waxing Gibbous, 98% of the Moon is Illuminated
Nov 5
Waxing Gibbous
Nov 6
Full
Nov 14
Last Quarter
Nov 22
New
Nov 29
First Quarter

Hourly Weather History & Observations

Time (EST) Temp. Windchill Dew Point Humidity Pressure Visibility Wind Dir Wind Speed Gust Speed Precip Events Conditions
12:53 AM 60.1 °F - 34.0 °F 38% 30.03 in 10.0 mi WSW 13.8 mph - N/A   Scattered Clouds
1:53 AM 60.1 °F - 36.0 °F 41% 30.04 in 10.0 mi West 16.1 mph 23.0 mph N/A   Mostly Cloudy
2:53 AM 59.0 °F - 37.9 °F 46% 30.06 in 10.0 mi West 17.3 mph 28.8 mph N/A   Overcast
3:53 AM 57.0 °F - 43.0 °F 59% 30.09 in 10.0 mi West 12.7 mph 23.0 mph N/A   Overcast
4:53 AM 55.9 °F - 43.0 °F 62% 30.11 in 10.0 mi West 8.1 mph - N/A   Overcast
5:30 AM 55.9 °F - 46.0 °F 69% 30.11 in 10.0 mi West 17.3 mph 24.2 mph N/A   Overcast
5:53 AM 54.0 °F - 48.0 °F 80% 30.14 in 10.0 mi West 11.5 mph - N/A   Overcast
6:53 AM 51.1 °F - 46.0 °F 83% 30.16 in 10.0 mi West 8.1 mph - 0.00 in   Overcast
7:10 AM 50.0 °F - 44.1 °F 80% 30.16 in 10.0 mi West 9.2 mph - N/A   Mostly Cloudy
7:53 AM 50.0 °F - 43.0 °F 77% 30.18 in 10.0 mi WSW 3.5 mph - N/A   Scattered Clouds
8:53 AM 50.0 °F - 44.1 °F 80% 30.19 in 10.0 mi WSW 5.8 mph - N/A   Clear
9:53 AM 51.1 °F - 45.0 °F 80% 30.20 in 10.0 mi SW 9.2 mph - N/A   Clear
10:53 AM 52.0 °F - 43.0 °F 71% 30.20 in 10.0 mi SSW 9.2 mph - N/A   Clear
11:53 AM 53.1 °F - 42.1 °F 66% 30.18 in 10.0 mi WSW 6.9 mph - N/A   Clear
12:53 PM 54.0 °F - 37.0 °F 53% 30.17 in 10.0 mi WSW 12.7 mph - N/A   Clear
1:53 PM 54.0 °F - 36.0 °F 51% 30.16 in 10.0 mi WSW 11.5 mph - N/A   Clear
2:53 PM 54.0 °F - 36.0 °F 51% 30.16 in 10.0 mi West 9.2 mph - N/A   Clear
3:53 PM 53.1 °F - 35.1 °F 50% 30.16 in 10.0 mi WSW 8.1 mph - N/A   Clear
4:53 PM 50.0 °F - 35.1 °F 57% 30.17 in 10.0 mi SW 5.8 mph - N/A   Clear
5:53 PM 50.0 °F - 33.1 °F 52% 30.17 in 10.0 mi WSW 4.6 mph - N/A   Clear
6:53 PM 48.9 °F - 34.0 °F 56% 30.17 in 10.0 mi WSW 6.9 mph - N/A   Clear
7:53 PM 46.9 °F - 34.0 °F 61% 30.17 in 10.0 mi SSW 4.6 mph - N/A   Clear
8:53 PM 46.0 °F - 35.1 °F 66% 30.17 in 10.0 mi Calm Calm - N/A   Clear
9:53 PM 46.0 °F 43.9 °F 36.0 °F 68% 30.16 in 10.0 mi SSW 4.6 mph - N/A   Mostly Cloudy
10:53 PM 48.9 °F - 36.0 °F 61% 30.13 in 10.0 mi South 3.5 mph - N/A   Overcast
11:53 PM 48.9 °F - 37.9 °F 66% 30.11 in 10.0 mi South 5.8 mph - 0.00 in Rain Light Rain